Year,Month,Day,Hour,Minute,Value (Times are PST for temperature in C)
2012,07,08,00,00,15.30
2012,07,08,00,01,15.30
2012,07,08,00,02,15.20
2012,07,08,00,03,15.20
2012,07,08,00,04,15.10
2012,07,08,00,05,15.00
2012,07,08,00,06,15.00
2012,07,08,00,07,14.90
2012,07,08,00,08,14.80
2012,07,08,00,09,14.80
2012,07,08,00,10,14.80
2012,07,08,00,11,14.80
2012,07,08,00,12,14.80
2012,07,08,00,13,14.70
2012,07,08,00,14,14.70
2012,07,08,00,15,14.60
2012,07,08,00,16,14.60
2012,07,08,00,17,14.60
2012,07,08,00,18,14.60
2012,07,08,00,19,14.60
2012,07,08,00,20,14.60
2012,07,08,00,21,14.60
2012,07,08,00,22,14.60
2012,07,08,00,23,14.60
2012,07,08,00,24,14.60
2012,07,08,00,25,14.60
2012,07,08,00,26,14.60
2012,07,08,00,27,14.60
2012,07,08,00,28,14.60
2012,07,08,00,29,14.70
2012,07,08,00,30,14.70
2012,07,08,00,31,14.70
2012,07,08,00,32,14.80
2012,07,08,00,33,14.80
2012,07,08,00,34,14.80
2012,07,08,00,35,14.80
2012,07,08,00,36,14.80
2012,07,08,00,37,14.80
2012,07,08,00,38,14.80
2012,07,08,00,39,14.80
2012,07,08,00,40,14.70
2012,07,08,00,41,14.70
2012,07,08,00,42,14.60
2012,07,08,00,43,14.60
2012,07,08,00,44,14.60
2012,07,08,00,45,14.60
2012,07,08,00,46,14.50
2012,07,08,00,47,14.50
2012,07,08,00,48,14.50
2012,07,08,00,49,14.50
2012,07,08,00,50,14.50
2012,07,08,00,51,14.50
2012,07,08,00,52,14.40
2012,07,08,00,53,14.40
2012,07,08,00,54,14.40
2012,07,08,00,55,14.40
2012,07,08,00,56,14.40
2012,07,08,00,57,14.30
2012,07,08,00,58,14.30
2012,07,08,00,59,14.30
2012,07,08,01,00,14.20
2012,07,08,01,01,14.20
2012,07,08,01,02,14.20
2012,07,08,01,03,14.20
2012,07,08,01,04,14.20
2012,07,08,01,05,14.10
2012,07,08,01,06,14.10
2012,07,08,01,07,14.10
2012,07,08,01,08,14.00
2012,07,08,01,09,14.00
2012,07,08,01,10,14.00
2012,07,08,01,11,13.90
2012,07,08,01,12,13.90
2012,07,08,01,13,13.90
2012,07,08,01,14,13.90
2012,07,08,01,15,13.90
2012,07,08,01,16,13.90
2012,07,08,01,17,13.90
2012,07,08,01,18,13.90
2012,07,08,01,19,13.90
2012,07,08,01,20,13.90
2012,07,08,01,21,13.90
2012,07,08,01,22,13.80
2012,07,08,01,23,13.80
2012,07,08,01,24,13.80
2012,07,08,01,25,13.80
2012,07,08,01,26,13.80
2012,07,08,01,27,13.80
2012,07,08,01,28,13.80
2012,07,08,01,29,13.80
2012,07,08,01,30,13.70
2012,07,08,01,31,13.70
2012,07,08,01,32,13.70
2012,07,08,01,33,13.70
2012,07,08,01,34,13.70
2012,07,08,01,35,13.70
2012,07,08,01,36,13.70
2012,07,08,01,37,13.70
2012,07,08,01,38,13.80
2012,07,08,01,39,13.80
2012,07,08,01,40,13.80
2012,07,08,01,41,13.80
2012,07,08,01,42,13.80
2012,07,08,01,43,13.80
2012,07,08,01,44,13.80
2012,07,08,01,45,13.90
2012,07,08,01,46,13.90
2012,07,08,01,47,13.90
2012,07,08,01,48,13.90
2012,07,08,01,49,13.90
2012,07,08,01,50,14.00
2012,07,08,01,51,14.00
2012,07,08,01,52,14.00
2012,07,08,01,53,14.00
2012,07,08,01,54,14.00
2012,07,08,01,55,14.00
2012,07,08,01,56,14.00
2012,07,08,01,57,14.00
2012,07,08,01,58,14.10
2012,07,08,01,59,14.10
2012,07,08,02,00,14.10
2012,07,08,02,01,14.20
2012,07,08,02,02,14.20
2012,07,08,02,03,14.20
2012,07,08,02,04,14.20
2012,07,08,02,05,14.20
2012,07,08,02,06,14.10
2012,07,08,02,07,14.10
2012,07,08,02,08,14.10
2012,07,08,02,09,14.10
2012,07,08,02,10,14.10
2012,07,08,02,11,14.10
2012,07,08,02,12,14.10
2012,07,08,02,13,14.10
2012,07,08,02,14,14.10
2012,07,08,02,15,14.10
2012,07,08,02,16,14.10
2012,07,08,02,17,14.10
2012,07,08,02,18,14.20
2012,07,08,02,19,14.20
2012,07,08,02,20,14.20
2012,07,08,02,21,14.20
2012,07,08,02,22,14.20
2012,07,08,02,23,14.20
2012,07,08,02,24,14.20
2012,07,08,02,25,14.20
2012,07,08,02,26,14.20
2012,07,08,02,27,14.20
2012,07,08,02,28,14.20
2012,07,08,02,29,14.20
2012,07,08,02,30,14.10
2012,07,08,02,31,14.10
2012,07,08,02,32,14.10
2012,07,08,02,33,14.10
2012,07,08,02,34,14.10
2012,07,08,02,35,14.10
2012,07,08,02,36,14.10
2012,07,08,02,37,14.10
2012,07,08,02,38,14.10
2012,07,08,02,39,14.10
2012,07,08,02,40,14.10
2012,07,08,02,41,14.10
2012,07,08,02,42,14.10
2012,07,08,02,43,14.10
2012,07,08,02,44,14.10
2012,07,08,02,45,14.10
2012,07,08,02,46,14.10
2012,07,08,02,47,14.10
2012,07,08,02,48,14.10
2012,07,08,02,49,14.10
2012,07,08,02,50,14.20
2012,07,08,02,51,14.20
2012,07,08,02,52,14.20
2012,07,08,02,53,14.10
2012,07,08,02,54,14.10
2012,07,08,02,55,14.10
2012,07,08,02,56,14.00
2012,07,08,02,57,14.00
2012,07,08,02,58,14.00
2012,07,08,02,59,13.90
2012,07,08,03,00,13.90
2012,07,08,03,01,13.90
2012,07,08,03,02,13.90
2012,07,08,03,03,13.90
2012,07,08,03,04,13.80
2012,07,08,03,05,13.80
2012,07,08,03,06,13.80
2012,07,08,03,07,13.80
2012,07,08,03,08,13.70
2012,07,08,03,09,13.70
2012,07,08,03,10,13.70
2012,07,08,03,11,13.70
2012,07,08,03,12,13.70
2012,07,08,03,13,13.70
2012,07,08,03,14,13.70
2012,07,08,03,15,13.70
2012,07,08,03,16,13.70
2012,07,08,03,17,13.70
2012,07,08,03,18,13.70
2012,07,08,03,19,13.70
2012,07,08,03,20,13.70
2012,07,08,03,21,13.60
2012,07,08,03,22,13.60
2012,07,08,03,23,13.60
2012,07,08,03,24,13.60
2012,07,08,03,25,13.60
2012,07,08,03,26,13.50
2012,07,08,03,27,13.50
2012,07,08,03,28,13.50
2012,07,08,03,29,13.50
2012,07,08,03,30,13.50
2012,07,08,03,31,13.50
2012,07,08,03,32,13.50
2012,07,08,03,33,13.50
2012,07,08,03,34,13.50
2012,07,08,03,35,13.50
2012,07,08,03,36,13.50
2012,07,08,03,37,13.50
2012,07,08,03,38,13.50
2012,07,08,03,39,13.60
2012,07,08,03,40,13.60
2012,07,08,03,41,13.60
2012,07,08,03,42,13.60
2012,07,08,03,43,13.60
2012,07,08,03,44,13.60
2012,07,08,03,45,13.50
2012,07,08,03,46,13.50
2012,07,08,03,47,13.50
2012,07,08,03,48,13.50
2012,07,08,03,49,13.40
2012,07,08,03,50,13.40
2012,07,08,03,51,13.40
2012,07,08,03,52,13.30
2012,07,08,03,53,13.30
2012,07,08,03,54,13.30
2012,07,08,03,55,13.30
2012,07,08,03,56,13.30
2012,07,08,03,57,13.30
2012,07,08,03,58,13.30
2012,07,08,03,59,13.30
2012,07,08,04,00,13.30
2012,07,08,04,01,13.30
2012,07,08,04,02,13.30
2012,07,08,04,03,13.30
2012,07,08,04,04,13.20
2012,07,08,04,05,13.20
2012,07,08,04,06,13.20
2012,07,08,04,07,13.20
2012,07,08,04,08,13.10
2012,07,08,04,09,13.10
2012,07,08,04,10,13.10
2012,07,08,04,11,13.00
2012,07,08,04,12,13.00
2012,07,08,04,13,13.00
2012,07,08,04,14,13.10
2012,07,08,04,15,13.10
2012,07,08,04,16,13.10
2012,07,08,04,17,13.10
2012,07,08,04,18,13.20
2012,07,08,04,19,13.20
2012,07,08,04,20,13.20
2012,07,08,04,21,13.20
2012,07,08,04,22,13.20
2012,07,08,04,23,13.20
2012,07,08,04,24,13.30
2012,07,08,04,25,13.30
2012,07,08,04,26,13.30
2012,07,08,04,27,13.30
2012,07,08,04,28,13.30
2012,07,08,04,29,13.30
2012,07,08,04,30,13.30
2012,07,08,04,31,13.30
2012,07,08,04,32,13.30
2012,07,08,04,33,13.30
2012,07,08,04,34,13.30
2012,07,08,04,35,13.30
2012,07,08,04,36,13.30
2012,07,08,04,37,13.30
2012,07,08,04,38,13.30
2012,07,08,04,39,13.30
2012,07,08,04,40,13.20
2012,07,08,04,41,13.20
2012,07,08,04,42,13.20
2012,07,08,04,43,13.10
2012,07,08,04,44,13.10
2012,07,08,04,45,13.10
2012,07,08,04,46,13.10
2012,07,08,04,47,13.00
2012,07,08,04,48,13.00
2012,07,08,04,49,13.00
2012,07,08,04,50,13.00
2012,07,08,04,51,13.00
2012,07,08,04,52,13.00
2012,07,08,04,53,12.90
2012,07,08,04,54,12.90
2012,07,08,04,55,13.00
2012,07,08,04,56,13.00
2012,07,08,04,57,13.00
2012,07,08,04,58,13.10
2012,07,08,04,59,13.10
2012,07,08,05,00,13.10
2012,07,08,05,01,13.10
2012,07,08,05,02,13.20
2012,07,08,05,03,13.20
2012,07,08,05,04,13.20
2012,07,08,05,05,13.30
2012,07,08,05,06,13.30
2012,07,08,05,07,13.20
2012,07,08,05,08,13.20
2012,07,08,05,09,13.20
2012,07,08,05,10,13.20
2012,07,08,05,11,13.10
2012,07,08,05,12,13.10
2012,07,08,05,13,13.10
2012,07,08,05,14,13.10
2012,07,08,05,15,13.10
2012,07,08,05,16,13.10
2012,07,08,05,17,13.10
2012,07,08,05,18,13.00
2012,07,08,05,19,13.00
2012,07,08,05,20,13.00
2012,07,08,05,21,13.00
2012,07,08,05,22,12.90
2012,07,08,05,23,12.90
2012,07,08,05,24,13.00
2012,07,08,05,25,13.00
2012,07,08,05,26,13.00
2012,07,08,05,27,13.00
2012,07,08,05,28,13.00
2012,07,08,05,29,13.00
2012,07,08,05,30,13.00
2012,07,08,05,31,13.00
2012,07,08,05,32,12.90
2012,07,08,05,33,12.90
2012,07,08,05,34,12.90
2012,07,08,05,35,12.90
2012,07,08,05,36,12.80
2012,07,08,05,37,12.80
2012,07,08,05,38,12.80
2012,07,08,05,39,12.80
2012,07,08,05,40,12.80
2012,07,08,05,41,12.80
2012,07,08,05,42,12.80
2012,07,08,05,43,12.80
2012,07,08,05,44,12.80
2012,07,08,05,45,12.80
2012,07,08,05,46,12.80
2012,07,08,05,47,12.80
2012,07,08,05,48,12.80
2012,07,08,05,49,12.80
2012,07,08,05,50,12.90
2012,07,08,05,51,12.90
2012,07,08,05,52,12.90
2012,07,08,05,53,12.90
2012,07,08,05,54,12.90
2012,07,08,05,55,12.90
2012,07,08,05,56,12.90
2012,07,08,05,57,13.00
2012,07,08,05,58,13.00
2012,07,08,05,59,13.00
2012,07,08,06,00,13.00
2012,07,08,06,01,13.00
2012,07,08,06,02,13.00
2012,07,08,06,03,13.10
2012,07,08,06,04,13.10
2012,07,08,06,05,13.20
2012,07,08,06,06,13.20
2012,07,08,06,07,13.20
2012,07,08,06,08,13.20
2012,07,08,06,09,13.30
2012,07,08,06,10,13.30
2012,07,08,06,11,13.30
2012,07,08,06,12,13.30
2012,07,08,06,13,13.30
2012,07,08,06,14,13.30
2012,07,08,06,15,13.30
2012,07,08,06,16,13.30
2012,07,08,06,17,13.30
2012,07,08,06,18,13.40
2012,07,08,06,19,13.40
2012,07,08,06,20,13.40
2012,07,08,06,21,13.40
2012,07,08,06,22,13.50
2012,07,08,06,23,13.50
2012,07,08,06,24,13.60
2012,07,08,06,25,13.60
2012,07,08,06,26,13.70
2012,07,08,06,27,13.70
2012,07,08,06,28,13.70
2012,07,08,06,29,13.70
2012,07,08,06,30,13.80
2012,07,08,06,31,13.80
2012,07,08,06,32,13.80
2012,07,08,06,33,13.80
2012,07,08,06,34,13.80
2012,07,08,06,35,13.80
2012,07,08,06,36,13.80
2012,07,08,06,37,13.80
2012,07,08,06,38,13.90
2012,07,08,06,39,13.90
2012,07,08,06,40,14.00
2012,07,08,06,41,14.00
2012,07,08,06,42,14.00
2012,07,08,06,43,14.10
2012,07,08,06,44,14.10
2012,07,08,06,45,14.10
2012,07,08,06,46,14.10
2012,07,08,06,47,14.10
2012,07,08,06,48,14.20
2012,07,08,06,49,14.20
2012,07,08,06,50,14.20
2012,07,08,06,51,14.30
2012,07,08,06,52,14.30
2012,07,08,06,53,14.30
2012,07,08,06,54,14.40
2012,07,08,06,55,14.40
2012,07,08,06,56,14.50
2012,07,08,06,57,14.50
2012,07,08,06,58,14.50
2012,07,08,06,59,14.50
2012,07,08,07,00,14.50
2012,07,08,07,01,14.60
2012,07,08,07,02,14.60
2012,07,08,07,03,14.60
2012,07,08,07,04,14.60
2012,07,08,07,05,14.60
2012,07,08,07,06,14.60
2012,07,08,07,07,14.70
2012,07,08,07,08,14.80
2012,07,08,07,09,14.90
2012,07,08,07,10,14.90
2012,07,08,07,11,14.90
2012,07,08,07,12,15.00
2012,07,08,07,13,15.10
2012,07,08,07,14,15.20
2012,07,08,07,15,15.30
2012,07,08,07,16,15.30
2012,07,08,07,17,15.30
2012,07,08,07,18,15.30
2012,07,08,07,19,15.40
2012,07,08,07,20,15.50
2012,07,08,07,21,15.50
2012,07,08,07,22,15.50
2012,07,08,07,23,15.60
2012,07,08,07,24,15.70
2012,07,08,07,25,15.70
2012,07,08,07,26,15.70
2012,07,08,07,27,15.80
2012,07,08,07,28,15.80
2012,07,08,07,29,15.80
2012,07,08,07,30,15.80
2012,07,08,07,31,15.80
2012,07,08,07,32,15.80
2012,07,08,07,33,15.80
2012,07,08,07,34,15.80
2012,07,08,07,35,15.80
2012,07,08,07,36,15.80
2012,07,08,07,37,15.70
2012,07,08,07,38,15.70
2012,07,08,07,39,15.60
2012,07,08,07,40,15.60
2012,07,08,07,41,15.60
2012,07,08,07,42,15.60
2012,07,08,07,43,15.60
2012,07,08,07,44,15.60
2012,07,08,07,45,15.60
2012,07,08,07,46,15.60
2012,07,08,07,47,15.60
2012,07,08,07,48,15.70
2012,07,08,07,49,15.60
2012,07,08,07,50,15.60
2012,07,08,07,51,15.60
2012,07,08,07,52,15.60
2012,07,08,07,53,15.60
2012,07,08,07,54,15.60
2012,07,08,07,55,15.60
2012,07,08,07,56,15.50
2012,07,08,07,57,15.60
2012,07,08,07,58,15.60
2012,07,08,07,59,15.60
2012,07,08,08,00,15.60
2012,07,08,08,01,15.60
2012,07,08,08,02,15.60
2012,07,08,08,03,15.70
2012,07,08,08,04,15.70
2012,07,08,08,05,15.70
2012,07,08,08,06,15.70
2012,07,08,08,07,15.70
2012,07,08,08,08,15.80
2012,07,08,08,09,15.80
2012,07,08,08,10,15.80
2012,07,08,08,11,15.80
2012,07,08,08,12,15.80
2012,07,08,08,13,15.80
2012,07,08,08,14,15.80
2012,07,08,08,15,15.80
2012,07,08,08,16,15.90
2012,07,08,08,17,15.90
2012,07,08,08,18,16.00
2012,07,08,08,19,16.10
2012,07,08,08,20,16.10
2012,07,08,08,21,16.20
2012,07,08,08,22,16.30
2012,07,08,08,23,16.40
2012,07,08,08,24,16.40
2012,07,08,08,25,16.50
2012,07,08,08,26,16.60
2012,07,08,08,27,16.80
2012,07,08,08,28,16.90
2012,07,08,08,29,16.90
2012,07,08,08,30,16.80
2012,07,08,08,31,16.70
2012,07,08,08,32,16.70
2012,07,08,08,33,16.60
2012,07,08,08,34,16.60
2012,07,08,08,35,16.60
2012,07,08,08,36,16.60
2012,07,08,08,37,16.60
2012,07,08,08,38,16.60
2012,07,08,08,39,16.70
2012,07,08,08,40,16.70
2012,07,08,08,41,16.70
2012,07,08,08,42,16.70
2012,07,08,08,43,16.70
2012,07,08,08,44,16.80
2012,07,08,08,45,16.80
2012,07,08,08,46,16.90
2012,07,08,08,47,17.00
2012,07,08,08,48,17.10
2012,07,08,08,49,17.20
2012,07,08,08,50,17.30
2012,07,08,08,51,17.30
2012,07,08,08,52,17.30
2012,07,08,08,53,17.40
2012,07,08,08,54,17.40
2012,07,08,08,55,17.50
2012,07,08,08,56,17.60
2012,07,08,08,57,17.70
2012,07,08,08,58,17.70
2012,07,08,08,59,17.80
2012,07,08,09,00,17.80
2012,07,08,09,01,17.70
2012,07,08,09,02,17.70
2012,07,08,09,03,17.60
2012,07,08,09,04,17.50
2012,07,08,09,05,17.40
2012,07,08,09,06,17.30
2012,07,08,09,07,17.30
2012,07,08,09,08,17.30
2012,07,08,09,09,17.40
2012,07,08,09,10,17.40
2012,07,08,09,11,17.40
2012,07,08,09,12,17.30
2012,07,08,09,13,17.30
2012,07,08,09,14,17.40
2012,07,08,09,15,17.50
2012,07,08,09,16,17.60
2012,07,08,09,17,17.70
2012,07,08,09,18,17.70
2012,07,08,09,19,17.70
2012,07,08,09,20,17.70
2012,07,08,09,21,17.60
2012,07,08,09,22,17.60
2012,07,08,09,23,17.60
2012,07,08,09,24,17.60
2012,07,08,09,25,17.50
2012,07,08,09,26,17.50
2012,07,08,09,27,17.60
2012,07,08,09,28,17.70
2012,07,08,09,29,17.80
2012,07,08,09,30,17.80
2012,07,08,09,31,17.70
2012,07,08,09,32,17.60
2012,07,08,09,33,17.60
2012,07,08,09,34,17.60
2012,07,08,09,35,17.70
2012,07,08,09,36,17.70
2012,07,08,09,37,17.80
2012,07,08,09,38,17.80
2012,07,08,09,39,17.90
2012,07,08,09,40,17.90
2012,07,08,09,41,17.90
2012,07,08,09,42,17.90
2012,07,08,09,43,17.90
2012,07,08,09,44,17.90
2012,07,08,09,45,17.90
2012,07,08,09,46,17.90
2012,07,08,09,47,17.90
2012,07,08,09,48,17.90
2012,07,08,09,49,17.80
2012,07,08,09,50,17.80
2012,07,08,09,51,17.80
2012,07,08,09,52,17.80
2012,07,08,09,53,17.90
2012,07,08,09,54,17.90
2012,07,08,09,55,17.90
2012,07,08,09,56,17.90
2012,07,08,09,57,17.90
2012,07,08,09,58,18.00
2012,07,08,09,59,18.10
2012,07,08,10,00,18.10
2012,07,08,10,01,18.20
2012,07,08,10,02,18.30
2012,07,08,10,03,18.40
2012,07,08,10,04,18.40
2012,07,08,10,05,18.40
2012,07,08,10,06,18.40
2012,07,08,10,07,18.40
2012,07,08,10,08,18.40
2012,07,08,10,09,18.50
2012,07,08,10,10,18.50
2012,07,08,10,11,18.50
2012,07,08,10,12,18.50
2012,07,08,10,13,18.40
2012,07,08,10,14,18.40
2012,07,08,10,15,18.40
2012,07,08,10,16,18.60
2012,07,08,10,17,18.60
2012,07,08,10,18,18.70
2012,07,08,10,19,18.80
2012,07,08,10,20,18.80
2012,07,08,10,21,18.80
2012,07,08,10,22,18.80
2012,07,08,10,23,18.80
2012,07,08,10,24,18.80
2012,07,08,10,25,18.70
2012,07,08,10,26,18.70
2012,07,08,10,27,18.60
2012,07,08,10,28,18.60
2012,07,08,10,29,18.70
2012,07,08,10,30,18.90
2012,07,08,10,31,18.90
2012,07,08,10,32,18.90
2012,07,08,10,33,19.10
2012,07,08,10,34,19.10
2012,07,08,10,35,19.10
2012,07,08,10,36,19.10
2012,07,08,10,37,18.90
2012,07,08,10,38,19.00
2012,07,08,10,39,19.10
2012,07,08,10,40,19.10
2012,07,08,10,41,19.20
2012,07,08,10,42,19.10
2012,07,08,10,43,19.10
2012,07,08,10,44,19.10
2012,07,08,10,45,19.10
2012,07,08,10,46,19.10
2012,07,08,10,47,19.20
2012,07,08,10,48,19.30
2012,07,08,10,49,19.40
2012,07,08,10,50,19.60
2012,07,08,10,51,19.70
2012,07,08,10,52,19.80
2012,07,08,10,53,19.80
2012,07,08,10,54,19.80
2012,07,08,10,55,19.70
2012,07,08,10,56,19.70
2012,07,08,10,57,19.80
2012,07,08,10,58,19.90
2012,07,08,10,59,19.90
2012,07,08,11,00,19.90
2012,07,08,11,01,20.00
2012,07,08,11,02,20.10
2012,07,08,11,03,20.10
2012,07,08,11,04,20.10
2012,07,08,11,05,20.10
2012,07,08,11,06,20.20
2012,07,08,11,07,20.20
2012,07,08,11,08,20.20
2012,07,08,11,09,20.30
2012,07,08,11,10,20.40
2012,07,08,11,11,20.40
2012,07,08,11,12,20.40
2012,07,08,11,13,20.50
2012,07,08,11,14,20.50
2012,07,08,11,15,20.30
2012,07,08,11,16,20.20
2012,07,08,11,17,20.10
2012,07,08,11,18,20.10
2012,07,08,11,19,20.00
2012,07,08,11,20,19.90
2012,07,08,11,21,19.90
2012,07,08,11,22,20.00
2012,07,08,11,23,20.10
2012,07,08,11,24,20.10
2012,07,08,11,25,20.10
2012,07,08,11,26,20.20
2012,07,08,11,27,20.30
2012,07,08,11,28,20.30
2012,07,08,11,29,20.40
2012,07,08,11,30,20.60
2012,07,08,11,31,20.60
2012,07,08,11,32,20.50
2012,07,08,11,33,20.40
2012,07,08,11,34,20.40
2012,07,08,11,35,20.30
2012,07,08,11,36,20.40
2012,07,08,11,37,20.50
2012,07,08,11,38,20.50
2012,07,08,11,39,20.50
2012,07,08,11,40,20.60
2012,07,08,11,41,20.60
2012,07,08,11,42,20.60
2012,07,08,11,43,20.60
2012,07,08,11,44,20.50
2012,07,08,11,45,20.40
2012,07,08,11,46,20.40
2012,07,08,11,47,20.50
2012,07,08,11,48,20.60
2012,07,08,11,49,20.70
2012,07,08,11,50,20.80
2012,07,08,11,51,21.00
2012,07,08,11,52,21.00
2012,07,08,11,53,21.00
2012,07,08,11,54,21.00
2012,07,08,11,55,21.00
2012,07,08,11,56,21.10
2012,07,08,11,57,21.10
2012,07,08,11,58,21.10
2012,07,08,11,59,21.00
2012,07,08,12,00,20.90
2012,07,08,12,01,20.80
2012,07,08,12,02,20.90
2012,07,08,12,03,20.90
2012,07,08,12,04,21.10
2012,07,08,12,05,21.20
2012,07,08,12,06,21.30
2012,07,08,12,07,21.30
2012,07,08,12,08,21.40
2012,07,08,12,09,21.40
2012,07,08,12,10,21.30
2012,07,08,12,11,21.30
2012,07,08,12,12,21.30
2012,07,08,12,13,21.30
2012,07,08,12,14,21.30
2012,07,08,12,15,21.30
2012,07,08,12,16,21.20
2012,07,08,12,17,21.20
2012,07,08,12,18,21.20
2012,07,08,12,19,21.10
2012,07,08,12,20,21.10
2012,07,08,12,21,21.10
2012,07,08,12,22,21.20
2012,07,08,12,23,21.30
2012,07,08,12,24,21.30
2012,07,08,12,25,21.30
2012,07,08,12,26,21.20
2012,07,08,12,27,21.10
2012,07,08,12,28,21.00
2012,07,08,12,29,21.00
2012,07,08,12,30,21.10
2012,07,08,12,31,21.20
2012,07,08,12,32,21.40
2012,07,08,12,33,21.60
2012,07,08,12,34,21.60
2012,07,08,12,35,21.60
2012,07,08,12,36,21.60
2012,07,08,12,37,21.50
2012,07,08,12,38,21.40
2012,07,08,12,39,21.30
2012,07,08,12,40,21.20
2012,07,08,12,41,21.10
2012,07,08,12,42,21.00
2012,07,08,12,43,20.90
2012,07,08,12,44,20.90
2012,07,08,12,45,20.90
2012,07,08,12,46,20.90
2012,07,08,12,47,21.00
2012,07,08,12,48,21.20
2012,07,08,12,49,21.40
2012,07,08,12,50,21.60
2012,07,08,12,51,21.60
2012,07,08,12,52,21.70
2012,07,08,12,53,21.90
2012,07,08,12,54,21.90
2012,07,08,12,55,22.00
2012,07,08,12,56,22.10
2012,07,08,12,57,22.10
2012,07,08,12,58,22.10
2012,07,08,12,59,22.00
2012,07,08,13,00,21.90
2012,07,08,13,01,21.80
2012,07,08,13,02,21.60
2012,07,08,13,03,21.60
2012,07,08,13,04,21.40
2012,07,08,13,05,21.40
2012,07,08,13,06,21.40
2012,07,08,13,07,21.40
2012,07,08,13,08,21.30
2012,07,08,13,09,21.40
2012,07,08,13,10,21.40
2012,07,08,13,11,21.40
2012,07,08,13,12,21.50
2012,07,08,13,13,21.60
2012,07,08,13,14,21.60
2012,07,08,13,15,21.60
2012,07,08,13,16,21.70
2012,07,08,13,17,21.90
2012,07,08,13,18,22.00
2012,07,08,13,19,22.10
2012,07,08,13,20,22.10
2012,07,08,13,21,22.20
2012,07,08,13,22,22.30
2012,07,08,13,23,22.40
2012,07,08,13,24,22.60
2012,07,08,13,25,22.60
2012,07,08,13,26,22.40
2012,07,08,13,27,22.20
2012,07,08,13,28,22.10
2012,07,08,13,29,22.10
2012,07,08,13,30,22.00
2012,07,08,13,31,21.90
2012,07,08,13,32,21.90
2012,07,08,13,33,21.90
2012,07,08,13,34,22.00
2012,07,08,13,35,22.10
2012,07,08,13,36,22.30
2012,07,08,13,37,22.30
2012,07,08,13,38,22.30
2012,07,08,13,39,22.20
2012,07,08,13,40,22.20
2012,07,08,13,41,22.30
2012,07,08,13,42,22.40
2012,07,08,13,43,22.50
2012,07,08,13,44,22.50
2012,07,08,13,45,22.20
2012,07,08,13,46,22.00
2012,07,08,13,47,21.80
2012,07,08,13,48,21.70
2012,07,08,13,49,21.60
2012,07,08,13,50,21.60
2012,07,08,13,51,21.60
2012,07,08,13,52,21.60
2012,07,08,13,53,21.60
2012,07,08,13,54,21.60
2012,07,08,13,55,21.80
2012,07,08,13,56,21.90
2012,07,08,13,57,21.90
2012,07,08,13,58,21.80
2012,07,08,13,59,21.70
2012,07,08,14,00,21.80
2012,07,08,14,01,21.90
2012,07,08,14,02,22.00
2012,07,08,14,03,21.90
2012,07,08,14,04,21.70
2012,07,08,14,05,21.50
2012,07,08,14,06,21.40
2012,07,08,14,07,21.30
2012,07,08,14,08,21.30
2012,07,08,14,09,21.30
2012,07,08,14,10,21.30
2012,07,08,14,11,21.30
2012,07,08,14,12,21.20
2012,07,08,14,13,21.20
2012,07,08,14,14,21.20
2012,07,08,14,15,21.10
2012,07,08,14,16,21.00
2012,07,08,14,17,21.00
2012,07,08,14,18,21.00
2012,07,08,14,19,21.00
2012,07,08,14,20,21.10
2012,07,08,14,21,21.10
2012,07,08,14,22,21.10
2012,07,08,14,23,21.00
2012,07,08,14,24,21.00
2012,07,08,14,25,21.10
2012,07,08,14,26,21.10
2012,07,08,14,27,21.00
2012,07,08,14,28,20.80
2012,07,08,14,29,20.50
2012,07,08,14,30,20.40
2012,07,08,14,31,20.30
2012,07,08,14,32,20.40
2012,07,08,14,33,20.40
2012,07,08,14,34,20.40
2012,07,08,14,35,20.20
2012,07,08,14,36,20.10
2012,07,08,14,37,20.00
2012,07,08,14,38,19.90
2012,07,08,14,39,20.00
2012,07,08,14,40,20.10
2012,07,08,14,41,20.20
2012,07,08,14,42,20.20
2012,07,08,14,43,20.20
2012,07,08,14,44,20.20
2012,07,08,14,45,20.20
2012,07,08,14,46,20.10
2012,07,08,14,47,19.90
2012,07,08,14,48,19.80
2012,07,08,14,49,19.70
2012,07,08,14,50,19.60
2012,07,08,14,51,19.50
2012,07,08,14,52,19.40
2012,07,08,14,53,19.30
2012,07,08,14,54,19.20
2012,07,08,14,55,19.20
2012,07,08,14,56,19.20
2012,07,08,14,57,19.20
2012,07,08,14,58,19.10
2012,07,08,14,59,19.20
2012,07,08,15,00,19.30
2012,07,08,15,01,19.30
2012,07,08,15,02,19.40
2012,07,08,15,03,19.50
2012,07,08,15,04,19.70
2012,07,08,15,05,19.80
2012,07,08,15,06,19.90
2012,07,08,15,07,19.90
2012,07,08,15,08,20.00
2012,07,08,15,09,20.10
2012,07,08,15,10,20.20
2012,07,08,15,11,20.20
2012,07,08,15,12,20.20
2012,07,08,15,13,20.20
2012,07,08,15,14,20.20
2012,07,08,15,15,20.30
2012,07,08,15,16,20.40
2012,07,08,15,17,20.50
2012,07,08,15,18,20.50
2012,07,08,15,19,20.40
2012,07,08,15,20,20.40
2012,07,08,15,21,20.40
2012,07,08,15,22,20.60
2012,07,08,15,23,20.70
2012,07,08,15,24,20.70
2012,07,08,15,25,20.60
2012,07,08,15,26,20.70
2012,07,08,15,27,20.80
2012,07,08,15,28,20.80
2012,07,08,15,29,20.90
2012,07,08,15,30,20.90
2012,07,08,15,31,21.00
2012,07,08,15,32,21.10
2012,07,08,15,33,21.30
2012,07,08,15,34,21.20
2012,07,08,15,35,21.10
2012,07,08,15,36,21.10
2012,07,08,15,37,21.10
2012,07,08,15,38,21.10
2012,07,08,15,39,21.20
2012,07,08,15,40,21.20
2012,07,08,15,41,21.20
2012,07,08,15,42,21.10
2012,07,08,15,43,21.10
2012,07,08,15,44,21.00
2012,07,08,15,45,21.00
2012,07,08,15,46,21.10
2012,07,08,15,47,21.20
2012,07,08,15,48,21.20
2012,07,08,15,49,21.30
2012,07,08,15,50,21.30
2012,07,08,15,51,21.40
2012,07,08,15,52,21.50
2012,07,08,15,53,21.60
2012,07,08,15,54,21.80
2012,07,08,15,55,21.90
2012,07,08,15,56,22.00
2012,07,08,15,57,22.10
2012,07,08,15,58,22.10
2012,07,08,15,59,22.20
2012,07,08,16,00,22.20
2012,07,08,16,01,22.10
2012,07,08,16,02,22.00
2012,07,08,16,03,21.80
2012,07,08,16,04,21.70
2012,07,08,16,05,21.60
2012,07,08,16,06,21.60
2012,07,08,16,07,21.60
2012,07,08,16,08,21.60
2012,07,08,16,09,21.70
2012,07,08,16,10,21.90
2012,07,08,16,11,22.00
2012,07,08,16,12,22.00
2012,07,08,16,13,22.00
2012,07,08,16,14,22.00
2012,07,08,16,15,22.10
2012,07,08,16,16,22.00
2012,07,08,16,17,22.00
2012,07,08,16,18,22.00
2012,07,08,16,19,22.00
2012,07,08,16,20,22.10
2012,07,08,16,21,22.20
2012,07,08,16,22,22.30
2012,07,08,16,23,22.20
2012,07,08,16,24,22.20
2012,07,08,16,25,22.20
2012,07,08,16,26,22.10
2012,07,08,16,27,22.10
2012,07,08,16,28,22.20
2012,07,08,16,29,22.20
2012,07,08,16,30,22.10
2012,07,08,16,31,22.20
2012,07,08,16,32,22.30
2012,07,08,16,33,22.40
2012,07,08,16,34,22.50
2012,07,08,16,35,22.60
2012,07,08,16,36,22.60
2012,07,08,16,37,22.60
2012,07,08,16,38,22.50
2012,07,08,16,39,22.50
2012,07,08,16,40,22.40
2012,07,08,16,41,22.40
2012,07,08,16,42,22.40
2012,07,08,16,43,22.40
2012,07,08,16,44,22.40
2012,07,08,16,45,22.40
2012,07,08,16,46,22.50
2012,07,08,16,47,22.60
2012,07,08,16,48,22.70
2012,07,08,16,49,22.80
2012,07,08,16,50,22.90
2012,07,08,16,51,22.90
2012,07,08,16,52,22.90
2012,07,08,16,53,22.90
2012,07,08,16,54,22.90
2012,07,08,16,55,22.90
2012,07,08,16,56,22.90
2012,07,08,16,57,22.90
2012,07,08,16,58,22.80
2012,07,08,16,59,22.80
2012,07,08,17,00,22.70
2012,07,08,17,01,22.70
2012,07,08,17,02,22.80
2012,07,08,17,03,22.80
2012,07,08,17,04,22.90
2012,07,08,17,05,22.90
2012,07,08,17,06,22.90
2012,07,08,17,07,22.90
2012,07,08,17,08,22.90
2012,07,08,17,09,23.00
2012,07,08,17,10,23.10
2012,07,08,17,11,23.20
2012,07,08,17,12,23.30
2012,07,08,17,13,23.30
2012,07,08,17,14,23.30
2012,07,08,17,15,23.30
2012,07,08,17,16,23.40
2012,07,08,17,17,23.50
2012,07,08,17,18,23.60
2012,07,08,17,19,23.60